GW5101 Weather Reports


time (UTC)temp
F
wind
direction
speed
knots
gust
knots
rain 1hr
in
rain 24hr
in
rain mn
in
humidity
%
barometer
mb
20260906162151 78 305 0.9 1.7 0.00 0.00 0.00 58 1024.3
20260906161647 78 174 1.7 2.6 0.00 0.00 0.00 60 1024.4
20260906161145 78 313 2.6 2.6 0.00 0.00 0.00 59 1024.4
20260906160645 77 246 1.7 2.6 0.00 0.00 0.00 61 1024.4
20260906160144 77 166 1.7 6.1 0.00 0.00 0.00 62 1024.4
20260906155642 76 221 1.7 5.2 0.00 0.00 0.00 64 1024.3
20260906155138 76 169 3.5 5.2 0.00 0.00 0.00 66 1024.5
20260906154633 75 173 1.7 3.5 0.00 0.00 0.00 66 1024.5
20260906154132 75 160 1.7 5.2 0.00 0.00 0.00 65 1024.6
20260906153632 75 175 0.9 2.6 0.00 0.00 0.00 64 1024.8
20260906153127 75 160 1.7 2.6 0.00 0.00 0.00 63 1024.9
20260906152627 75 192 1.7 2.6 0.00 0.00 0.00 65 1024.6
20260906152120 74 182 2.6 2.6 0.00 0.00 0.00 63 1024.9
20260906151615 74 190 1.7 2.6 0.00 0.00 0.00 65 1024.9
20260906151112 73 180 0.9 1.7 0.00 0.00 0.00 65 1025.0
20260906150607 74 172 1.7 2.6 0.00 0.00 0.00 66 1024.8
20260906145600 73 86 0.0 2.6 0.00 0.00 0.00 63 1024.5
20260906145055 72 188 1.7 3.5 0.00 0.00 0.00 65 1024.6
20260906144550 72 170 3.5 5.2 0.00 0.00 0.00 67 1024.7
20260906144045 72 177 3.5 3.5 0.00 0.00 0.00 68 1024.6
20260906143540 72 179 3.5 5.2 0.00 0.00 0.00 68 1024.4
20260906143037 72 164 3.5 3.5 0.00 0.00 0.00 70 1024.7
20260906142536 72 155 2.6 3.5 0.00 0.00 0.00 71 1024.4
20260906142032 71 178 2.6 3.5 0.00 0.00 0.00 72 1024.4
20260906141531 71 170 4.3 6.1 0.00 0.00 0.00 72 1024.4
20260906141026 71 178 2.6 2.6 0.00 0.00 0.00 75 1024.5
20260906140520 70 199 0.9 3.5 0.00 0.00 0.00 77 1024.6
20260906140019 70 185 1.7 3.5 0.00 0.00 0.00 77 1024.5
20260906135516 70 177 0.9 3.5 0.00 0.00 0.00 79 1024.7
20260906135013 69 161 1.7 2.6 0.00 0.00 0.00 83 1024.7
20260906134508 69 167 1.7 1.7 0.00 0.00 0.00 85 1024.8
20260906134008 68 176 1.7 2.6 0.00 0.00 0.00 87 1024.8
20260906133504 68 181 1.7 5.2 0.00 0.00 0.00 88 1024.7
20260906132959 68 172 1.7 3.5 0.00 0.00 0.00 90 1024.8
20260906132454 67 171 2.6 3.5 0.00 0.00 0.00 91 1025.0
20260906131950 67 174 1.7 2.6 0.00 0.00 0.00 93 1024.9
20260906131445 66 178 1.7 2.6 0.00 0.00 0.00 94 1024.8
20260906130941 66 174 1.7 1.7 0.00 0.00 0.00 96 1024.9
20260906130440 65 185 0.9 1.7 0.00 0.00 0.00 96 1024.8
20260906125934 65 182 0.9 1.7 0.00 0.00 0.00 97 1024.8
20260906125431 65 182 0.9 1.7 0.00 0.00 0.00 98 1024.8
20260906124931 64 183 0.9 1.7 0.00 0.00 0.00 98 1024.7
20260906124427 63 232 0.9 0.9 0.00 0.00 0.00 98 1024.9
20260906123921 63 278 0.0 0.0 0.00 0.00 0.00 98 1024.8
20260906123415 62 268 0.9 0.9 0.00 0.00 0.00 98 1024.8
20260906122915 62 284 0.0 0.0 0.00 0.00 0.00 98 1024.8
20260906122410 62 284 0.0 0.0 0.00 0.00 0.00 97 1024.6
20260906121907 62 284 0.0 0.0 0.00 0.00 0.00 97 1024.6
20260906121403 61 284 0.0 0.0 0.00 0.00 0.00 97 1024.6
20260906120859 61 284 0.0 0.0 0.00 0.00 0.00 97 1024.7
20260906120354 61 284 0.0 0.0 0.00 0.00 0.00 98 1024.4
20260906115850 61 284 0.0 0.0 0.00 0.00 0.00 98 1024.3
20260906115345 61 284 0.0 0.0 0.00 0.00 0.00 98 1024.2
20260906114844 62 284 0.0 0.0 0.00 0.00 0.00 98 1024.1
20260906114340 62 284 0.0 0.0 0.00 0.00 0.00 98 1024.1
20260906113835 62 283 0.0 0.0 0.00 0.00 0.00 98 1023.9
20260906113334 62 284 0.0 0.0 0.00 0.00 0.00 97 1023.9
20260906112830 62 284 0.0 0.0 0.00 0.00 0.00 97 1024.0
20260906112326 62 284 0.0 0.0 0.00 0.00 0.00 97 1023.9
20260906111826 62 285 0.0 0.0 0.00 0.00 0.00 97 1023.8
20260906111325 62 285 0.0 0.0 0.00 0.00 0.00 97 1024.0
20260906110820 62 285 0.0 0.0 0.00 0.00 0.00 96 1023.8
20260906110316 63 285 0.0 0.0 0.00 0.00 0.00 97 1023.8
20260906105815 63 285 0.0 0.0 0.00 0.00 0.00 97 1023.5
20260906105311 63 285 0.0 0.0 0.00 0.00 0.00 96 1023.5
20260906104807 64 285 0.0 0.0 0.00 0.00 0.00 97 1023.6
20260906104305 64 284 0.0 0.0 0.00 0.00 0.00 97 1023.6
20260906103803 64 284 0.0 0.0 0.00 0.00 0.00 97 1023.6
20260906103258 64 284 0.0 0.0 0.00 0.00 0.00 97 1023.5
20260906102754 65 284 0.0 0.0 0.00 0.00 0.00 97 1023.3
20260906102252 65 198 0.9 1.7 0.00 0.00 0.00 98 1023.5
20260906101748 64 267 0.9 0.9 0.00 0.00 0.00 97 1023.3
20260906101248 64 290 0.0 0.0 0.00 0.00 0.00 97 1023.2
20260906100743 63 290 0.0 0.0 0.00 0.00 0.00 97 1023.4
20260906100242 63 290 0.0 0.0 0.00 0.00 0.00 96 1023.4
20260906095738 63 290 0.0 0.0 0.00 0.00 0.00 96 1023.6
20260906095233 63 290 0.0 0.0 0.00 0.00 0.00 96 1023.4
20260906094732 63 290 0.0 0.0 0.00 0.00 0.00 96 1023.5
20260906094227 63 290 0.0 0.0 0.00 0.00 0.00 96 1023.5
20260906093724 63 290 0.0 0.0 0.00 0.00 0.00 96 1023.4
20260906093219 63 290 0.0 0.0 0.00 0.00 0.00 95 1023.5
20260906092715 62 290 0.0 0.0 0.00 0.00 0.00 95 1023.4
20260906092214 62 290 0.0 0.0 0.00 0.00 0.00 94 1023.4
20260906091711 62 290 0.0 0.0 0.00 0.00 0.00 95 1023.4
20260906091207 62 290 0.0 0.0 0.00 0.00 0.00 95 1023.5
20260906090703 62 290 0.0 0.0 0.00 0.00 0.00 95 1023.5
20260906090202 62 290 0.0 0.0 0.00 0.00 0.00 94 1023.4
20260906085701 62 290 0.0 0.0 0.00 0.00 0.00 94 1023.4
20260906085200 62 290 0.0 0.0 0.00 0.00 0.00 95 1023.4
20260906084655 62 290 0.0 0.0 0.00 0.00 0.00 95 1023.4
20260906084154 62 290 0.0 0.0 0.00 0.00 0.00 95 1023.4
20260906083649 62 290 0.0 0.0 0.00 0.00 0.00 95 1023.3
20260906083145 62 290 0.0 0.0 0.00 0.00 0.00 95 1023.3
20260906082640 62 290 0.0 0.0 0.00 0.00 0.00 94 1023.3
20260906082135 62 290 0.0 0.0 0.00 0.00 0.00 94 1023.4
20260906081631 62 290 0.0 0.0 0.00 0.00 0.00 94 1023.3
20260906081126 62 290 0.0 0.0 0.00 0.00 0.00 95 1023.6
20260906080623 62 290 0.0 0.0 0.00 0.00 0.00 94 1023.4
20260906080119 61 290 0.0 0.0 0.00 0.00 0.00 94 1023.4
20260906075612 61 290 0.0 0.0 0.00 0.00 0.00 93 1023.4
20260906075107 61 290 0.0 0.0 0.00 0.00 0.00 93 1023.3
20260906074602 60 290 0.0 0.0 0.00 0.00 0.00 93 1023.4
20260906074101 60 290 0.0 0.0 0.00 0.00 0.00 92 1023.3
20260906073556 60 290 0.0 0.0 0.00 0.00 0.00 93 1023.3
20260906073052 60 290 0.0 0.0 0.00 0.00 0.00 94 1023.2
20260906072546 61 290 0.0 0.0 0.00 0.00 0.00 95 1023.1
20260906072042 61 290 0.0 0.0 0.00 0.00 0.00 95 1023.2
20260906071538 61 290 0.0 0.0 0.00 0.00 0.00 96 1023.2
20260906071033 61 290 0.0 0.0 0.00 0.00 0.00 96 1023.2
20260906070530 61 290 0.0 0.0 0.00 0.00 0.00 96 1023.2
20260906070025 61 290 0.0 0.0 0.00 0.00 0.00 96 1023.4
20260906065524 61 290 0.0 0.0 0.00 0.00 0.00 96 1023.2
20260906065020 60 290 0.0 0.0 0.00 0.00 0.00 95 1023.5
20260906064516 60 290 0.0 0.0 0.00 0.00 0.00 95 1023.6
20260906064017 60 290 0.0 0.0 0.00 0.00 0.00 95 1023.5
20260906063512 60 290 0.0 0.0 0.00 0.00 0.00 95 1023.8
20260906063008 60 290 0.0 0.0 0.00 0.00 0.00 95 1023.6
20260906062502 60 290 0.0 0.0 0.00 0.00 0.00 95 1023.4
20260906061957 61 290 0.0 0.0 0.00 0.00 0.00 94 1023.2
20260906061453 60 290 0.0 0.0 0.00 0.00 0.00 94 1023.5
20260906060947 60 290 0.0 0.0 0.00 0.00 0.00 93 1023.5
20260906060444 61 290 0.0 0.0 0.00 0.00 0.00 94 1023.5
20260906055941 61 290 0.0 0.0 0.00 0.00 0.00 94 1023.4
20260906055436 62 290 0.0 0.0 0.00 0.00 0.00 93 1023.0
20260906054932 62 290 0.0 0.0 0.00 0.00 0.00 94 1022.9
20260906054426 62 288 0.0 0.9 0.00 0.00 0.00 95 1022.9
20260906053922 62 19 0.0 0.0 0.00 0.00 0.00 93 1023.0
20260906053418 62 19 0.0 0.0 0.00 0.00 0.00 94 1022.9
20260906052914 62 19 0.0 0.0 0.00 0.00 0.00 94 1022.9
20260906052410 62 19 0.0 0.0 0.00 0.00 0.00 93 1022.8
20260906051906 62 19 0.0 0.0 0.00 0.00 0.00 93 1022.6
20260906051406 62 19 0.0 0.0 0.00 0.00 0.00 93 1022.8
20260906050902 63 19 0.0 0.0 0.00 0.00 0.00 92 1022.9
20260906050357 63 19 0.0 0.0 0.00 0.00 0.00 92 1022.9
20260906045855 63 19 0.0 0.0 0.00 0.00 0.00 92 1023.0
20260906045349 63 19 0.0 0.0 0.00 0.00 0.00 92 1023.1
20260906044845 63 19 0.0 0.0 0.00 0.00 0.00 92 1023.0
20260906044345 63 19 0.0 0.0 0.00 0.00 0.00 93 1023.1
20260906043841 63 19 0.0 0.0 0.00 0.00 0.00 92 1022.9
20260906043337 63 19 0.0 0.0 0.00 0.00 0.00 92 1023.2
20260906042832 63 19 0.0 0.0 0.00 0.00 0.00 92 1023.1
20260906042331 63 19 0.0 0.0 0.00 0.00 0.00 92 1022.9
20260906041826 63 19 0.0 0.0 0.00 0.00 0.00 92 1022.5
20260906041322 63 19 0.0 0.0 0.00 0.00 0.00 91 1022.6
20260906040817 63 19 0.0 0.0 0.00 0.00 0.00 91 1022.8
20260906040312 63 19 0.0 0.0 0.00 0.00 0.00 91 1022.6
20260906035808 63 19 0.0 0.0 0.00 0.00 0.00 91 1022.4
20260906035306 63 19 0.0 0.0 0.00 0.00 0.00 91 1022.1
20260906034758 63 19 0.0 0.0 0.00 0.00 0.00 91 1022.2
20260906034257 63 19 0.0 0.0 0.00 0.00 0.00 91 1022.2
20260906033753 64 19 0.0 0.0 0.00 0.00 0.00 91 1022.1
20260906033252 63 19 0.0 0.0 0.00 0.00 0.00 91 1021.9
20260906032749 63 19 0.0 0.0 0.00 0.00 0.00 91 1021.8
20260906032249 63 19 0.0 0.0 0.00 0.00 0.00 90 1022.1
20260906031744 63 19 0.0 0.0 0.00 0.00 0.00 90 1022.1
20260906031241 64 19 0.0 0.0 0.00 0.00 0.00 90 1022.4
20260906030740 64 19 0.0 0.0 0.00 0.00 0.00 90 1022.0
20260906030235 64 19 0.0 0.0 0.00 0.00 0.00 90 1021.9
20260906025734 64 19 0.0 0.0 0.00 0.00 0.00 90 1021.9
20260906025229 64 19 0.0 0.0 0.00 0.00 0.00 89 1021.9
20260906024728 64 19 0.0 0.0 0.00 0.00 0.00 88 1021.8
20260906024227 65 19 0.0 0.0 0.00 0.00 0.00 88 1022.0
20260906023723 65 19 0.0 0.0 0.00 0.00 0.00 88 1021.7
20260906023218 65 19 0.0 0.0 0.00 0.00 0.00 88 1021.8
20260906022714 65 19 0.0 0.0 0.00 0.00 0.00 88 1021.7
20260906022209 65 19 0.0 0.0 0.00 0.00 0.00 87 1021.7
20260906021705 65 19 0.0 0.0 0.00 0.00 0.00 87 1021.7
20260906021203 65 19 0.0 0.0 0.00 0.00 0.00 87 1021.8
20260906020659 65 19 0.0 0.0 0.00 0.00 0.00 87 1021.6
20260906020153 66 19 0.0 0.0 0.00 0.00 0.00 87 1021.5
20260906015647 66 19 0.0 0.0 0.00 0.00 0.00 87 1021.6
20260906015146 66 19 0.0 0.0 0.00 0.00 0.00 86 1021.5
20260906014646 66 19 0.0 0.0 0.00 0.00 0.00 85 1021.6
20260906014142 66 19 0.0 0.0 0.00 0.00 0.00 85 1021.6
20260906013638 66 19 0.0 0.0 0.00 0.00 0.00 85 1021.6
20260906013133 66 19 0.0 0.0 0.00 0.00 0.00 84 1021.6
20260906012633 67 19 0.0 0.0 0.00 0.00 0.00 84 1021.7
20260906012128 67 19 0.0 0.0 0.00 0.00 0.00 84 1021.5
20260906011624 67 19 0.0 0.0 0.00 0.00 0.00 84 1021.6
20260906011124 67 19 0.0 0.0 0.00 0.00 0.00 83 1021.6
20260906010620 68 20 0.0 0.0 0.00 0.00 0.00 83 1021.5
20260906010116 68 20 0.0 0.0 0.00 0.00 0.00 83 1021.5
20260906005615 68 20 0.0 0.0 0.00 0.00 0.00 82 1021.6
20260906005114 68 20 0.0 0.0 0.00 0.00 0.00 82 1021.6
20260906004614 69 20 0.9 0.9 0.00 0.00 0.00 81 1021.7
20260906004109 69 20 0.9 0.9 0.00 0.00 0.00 80 1021.7
20260906003604 69 20 0.0 0.0 0.00 0.00 0.00 80 1021.7
20260906003101 69 20 0.0 0.9 0.00 0.00 0.00 79 1021.7
20260906002600 70 22 0.9 0.9 0.00 0.00 0.00 79 1021.7
20260906002055 70 16 0.9 0.9 0.00 0.00 0.00 78 1021.7
20260906001550 71 16 0.0 0.0 0.00 0.00 0.00 77 1021.7
20260906001045 71 17 0.0 1.7 0.00 0.00 0.00 77 1021.6
20260906000541 71 6 0.0 0.9 0.00 0.00 0.00 76 1021.6
20260906000036 71 6 0.0 0.9 0.00 0.00 0.00 76 1021.3
20260905235535 72 358 0.9 0.9 0.00 0.00 0.00 75 1021.5
20260905235031 72 20 0.9 1.7 0.00 0.00 0.00 74 1021.6
20260905234526 72 4 0.0 0.0 0.00 0.00 0.00 75 1021.3
20260905234021 73 356 0.0 0.9 0.00 0.00 0.00 75 1021.5
20260905233515 73 0 0.0 0.9 0.00 0.00 0.00 75 1021.2
20260905233015 73 354 0.0 0.0 0.00 0.00 0.00 75 1021.3
20260905232510 73 352 0.0 0.0 0.00 0.00 0.00 74 1021.2
20260905232006 74 352 0.9 0.9 0.00 0.00 0.00 75 1021.1
20260905231501 74 23 0.9 1.7 0.00 0.00 0.00 75 1021.2
20260905230957 74 9 0.0 0.9 0.00 0.00 0.00 75 1021.3
20260905230456 74 1 0.9 0.9 0.00 0.00 0.00 74 1021.2
20260905225954 75 14 1.7 1.7 0.00 0.00 0.00 73 1021.2
20260905225449 76 353 0.0 0.9 0.00 0.00 0.00 72 1021.5
20260905224944 76 5 0.9 1.7 0.00 0.00 0.00 72 1021.5
20260905224440 77 9 0.9 2.6 0.00 0.00 0.00 71 1021.3
20260905223939 77 337 0.9 1.7 0.00 0.00 0.00 70 1021.3
20260905223437 78 330 0.0 0.9 0.00 0.00 0.00 68 1021.3
20260905222932 78 13 0.9 1.7 0.00 0.00 0.00 69 1021.3
20260905222431 79 315 0.0 0.0 0.00 0.00 0.00 68 1021.3
20260905221927 79 35 1.7 2.6 0.00 0.00 0.00 68 1021.3
20260905221424 79 303 0.0 1.7 0.00 0.00 0.00 67 1021.1
20260905220920 79 336 0.9 1.7 0.00 0.00 0.00 67 1021.2
20260905220415 78 318 0.0 0.9 0.00 0.00 0.00 68 1021.3
20260905215914 79 325 0.0 0.0 0.00 0.00 0.00 68 1021.2
20260905215410 78 322 0.0 2.6 0.00 0.00 0.00 70 1021.3
20260905214906 79 4 0.9 3.5 0.00 0.00 0.00 68 1021.7
20260905214402 79 343 0.0 1.7 0.00 0.00 0.00 69 1021.5
20260905213856 79 7 0.9 2.6 0.00 0.00 0.00 68 1021.6
20260905213353 79 346 0.0 0.9 0.00 0.00 0.00 69 1021.5
20260905212848 78 348 0.0 0.9 0.00 0.00 0.00 70 1021.3
20260905212348 78 348 0.0 1.7 0.00 0.00 0.00 72 1021.5
20260905211841 79 16 0.9 1.7 0.00 0.00 0.00 70 1021.3
20260905211337 78 359 0.0 1.7 0.00 0.00 0.00 70 1021.3
20260905210833 78 9 0.9 1.7 0.00 0.00 0.00 70 1021.1
20260905210333 78 356 0.9 1.7 0.00 0.00 0.00 71 1021.1
20260905205832 78 336 0.0 0.9 0.00 0.00 0.00 72 1021.3
20260905205327 78 338 0.0 2.6 0.00 0.00 0.00 71 1021.7
20260905204826 78 16 0.9 1.7 0.00 0.00 0.00 70 1021.6
20260905204323 78 23 1.7 1.7 0.00 0.00 0.00 71 1021.8
20260905203821 79 12 0.9 1.7 0.00 0.00 0.00 69 1021.7
20260905203317 79 21 1.7 2.6 0.00 0.00 0.00 68 1021.9
20260905202813 79 348 0.9 1.7 0.00 0.00 0.00 68 1021.9
20260905202307 80 35 1.7 1.7 0.00 0.00 0.00 66 1021.8
20260905201803 80 356 0.9 1.7 0.00 0.00 0.00 65 1021.8
20260905201258 80 14 0.9 1.7 0.00 0.00 0.00 65 1021.8
20260905200753 79 340 0.0 0.0 0.00 0.00 0.00 65 1021.5
20260905200249 79 131 0.0 2.6 0.00 0.00 0.00 68 1021.7
20260905195747 79 354 0.9 1.7 0.00 0.00 0.00 65 1021.7
20260905195242 79 19 0.0 0.9 0.00 0.00 0.00 69 1021.7
20260905194738 79 17 0.9 0.9 0.00 0.00 0.00 67 1021.7
20260905194237 79 359 0.0 0.9 0.00 0.00 0.00 67 1021.6
20260905193736 80 346 0.0 0.9 0.00 0.00 0.00 67 1021.7
20260905193231 80 315 0.0 0.0 0.00 0.00 0.00 66 1021.6
20260905192727 80 353 0.9 0.9 0.00 0.00 0.00 66 1021.5
20260905192223 79 355 0.9 1.7 0.00 0.00 0.00 67 1021.7
20260905191722 80 343 0.9 0.9 0.00 0.00 0.00 66 1021.7
20260905191220 80 308 0.0 0.0 0.00 0.00 0.00 64 1021.8
20260905190719 80 299 0.0 0.9 0.00 0.00 0.00 68 1021.9
20260905190218 80 285 0.0 1.7 0.00 0.00 0.00 64 1022.0
20260905185717 78 290 0.0 0.0 0.00 0.00 0.00 71 1021.9
20260905185212 77 289 1.7 2.6 0.00 0.00 0.00 70 1022.2
20260905184707 78 304 0.9 0.9 0.00 0.00 0.00 71 1022.1
20260905184206 77 325 0.0 0.0 0.00 0.00 0.00 72 1022.1
20260905183705 77 294 0.9 1.7 0.00 0.00 0.00 70 1022.1
20260905183201 77 189 1.7 1.7 0.00 0.00 0.00 71 1022.0
20260905182700 76 325 0.0 0.9 0.00 0.00 0.00 73 1021.9
20260905182200 75 225 0.0 0.9 0.00 0.00 0.00 75 1021.9
20260905181655 76 208 1.7 1.7 0.00 0.00 0.00 74 1022.1
20260905181154 76 157 1.7 1.7 0.00 0.00 0.00 74 1022.0
20260905180649 76 343 0.0 0.0 0.00 0.00 0.00 73 1022.1
20260905180145 76 343 0.0 0.0 0.00 0.00 0.00 73 1022.3
20260905175643 77 316 0.0 0.0 0.00 0.00 0.00 72 1022.3
20260905175139 76 318 0.0 0.0 0.00 0.00 0.00 75 1022.3
20260905174635 76 343 0.0 1.7 0.00 0.00 0.00 75 1022.6
20260905174130 76 345 0.0 0.0 0.00 0.00 0.00 73 1022.4
20260905173626 75 345 0.0 0.0 0.00 0.00 0.00 74 1022.5
20260905173122 75 345 0.0 0.0 0.00 0.00 0.00 75 1022.5
20260905172620 75 345 0.0 0.9 0.00 0.00 0.00 75 1022.5
20260905172115 75 344 0.0 0.0 0.00 0.00 0.00 74 1022.6
20260905171612 75 344 0.0 0.9 0.00 0.00 0.00 75 1022.6
20260905171108 76 331 0.0 0.0 0.00 0.00 0.00 73 1022.6
20260905170604 74 319 0.0 0.0 0.00 0.00 0.00 77 1022.6
20260905170059 74 200 0.0 0.0 0.00 0.00 0.00 78 1022.6
20260905165559 74 200 0.0 0.0 0.00 0.00 0.00 77 1022.8
20260905165054 73 200 0.0 0.0 0.00 0.00 0.00 77 1022.7
20260905164549 73 200 0.0 0.0 0.00 0.00 0.00 78 1022.5
20260905164044 73 200 0.0 0.0 0.00 0.00 0.00 78 1022.9
20260905163540 73 200 0.0 0.0 0.00 0.00 0.00 79 1022.5
20260905163036 73 200 0.0 0.0 0.00 0.00 0.00 80 1022.8